Time,TemperatureF,DewpointF,PressureIn,WindDirection,WindDirectionDegrees,WindSpeedMPH,WindSpeedGustMPH,Humidity,HourlyPrecipIn,Conditions,Clouds,dailyrainin,SoftwareType,DateUTC
2013-10-20 00:03:00,-999.0,-99.9,-100.00,West,260,3.0,6.0,-999,-99.99,,,-99.99,,2013-10-20 04:03:00,
2013-10-20 00:14:00,38.0,-99.9,-100.00,West,260,3.0,6.0,-999,-99.99,,,-99.99,,2013-10-20 04:14:00,
2013-10-20 00:24:00,38.0,-99.9,-100.00,West,260,3.0,6.0,-999,-99.99,,,-99.99,,2013-10-20 04:24:00,
2013-10-20 00:34:00,38.0,-99.9,-100.00,West,260,3.0,6.0,-999,-99.99,,,-99.99,,2013-10-20 04:34:00,
2013-10-20 00:40:00,39.0,-99.9,-100.00,WSW,242,4.0,6.0,-999,-99.99,,,-99.99,,2013-10-20 04:40:00,
2013-10-20 01:23:00,39.0,-99.9,-100.00,WSW,242,4.0,6.0,-999,-99.99,,,-99.99,,2013-10-20 05:23:00,
2013-10-20 01:34:00,39.0,-99.9,-100.00,WSW,242,4.0,6.0,-999,-99.99,,,-99.99,,2013-10-20 05:34:00,
2013-10-20 01:40:00,36.0,-99.9,-100.00,WSW,239,2.0,3.0,-999,-99.99,,,-99.99,,2013-10-20 05:40:00,
2013-10-20 02:13:00,36.0,-99.9,-100.00,WSW,239,2.0,3.0,-999,-99.99,,,-99.99,,2013-10-20 06:13:00,
2013-10-20 02:22:00,36.0,-99.9,-100.00,WSW,239,2.0,3.0,-999,-99.99,,,-99.99,,2013-10-20 06:22:00,
2013-10-20 02:32:00,36.0,-99.9,-100.00,WSW,239,2.0,3.0,-999,-99.99,,,-99.99,,2013-10-20 06:32:00,
2013-10-20 02:40:00,38.0,-99.9,-100.00,West,276,4.0,9.0,-999,-99.99,,,-99.99,,2013-10-20 06:40:00,
2013-10-20 03:12:00,38.0,-99.9,-100.00,West,276,4.0,9.0,-999,-99.99,,,-99.99,,2013-10-20 07:12:00,
2013-10-20 03:22:00,38.0,-99.9,-100.00,West,276,4.0,9.0,-999,-99.99,,,-99.99,,2013-10-20 07:22:00,
2013-10-20 03:32:00,38.0,-99.9,-100.00,West,276,4.0,9.0,-999,-99.99,,,-99.99,,2013-10-20 07:32:00,
2013-10-20 03:40:00,38.0,-99.9,-100.00,WSW,253,2.0,6.0,-999,-99.99,,,-99.99,,2013-10-20 07:40:00,
2013-10-20 04:12:00,38.0,-99.9,-100.00,WSW,253,2.0,6.0,-999,-99.99,,,-99.99,,2013-10-20 08:12:00,
2013-10-20 04:22:00,38.0,-99.9,-100.00,WSW,253,2.0,6.0,-999,-99.99,,,-99.99,,2013-10-20 08:22:00,
2013-10-20 04:33:00,38.0,-99.9,-100.00,WSW,253,2.0,6.0,-999,-99.99,,,-99.99,,2013-10-20 08:33:00,
2013-10-20 04:40:00,37.0,-99.9,-100.00,WSW,242,2.0,6.0,-999,-99.99,,,-99.99,,2013-10-20 08:40:00,
2013-10-20 05:11:00,37.0,-99.9,-100.00,WSW,242,2.0,6.0,-999,-99.99,,,-99.99,,2013-10-20 09:11:00,
2013-10-20 05:22:00,37.0,-99.9,-100.00,WSW,242,2.0,6.0,-999,-99.99,,,-99.99,,2013-10-20 09:22:00,
2013-10-20 05:33:00,37.0,-99.9,-100.00,WSW,242,2.0,6.0,-999,-99.99,,,-99.99,,2013-10-20 09:33:00,
2013-10-20 05:40:00,38.0,-99.9,-100.00,West,272,4.0,10.0,-999,-99.99,,,-99.99,,2013-10-20 09:40:00,
2013-10-20 06:23:00,38.0,-99.9,-100.00,West,272,4.0,10.0,-999,-99.99,,,-99.99,,2013-10-20 10:23:00,
2013-10-20 06:33:00,38.0,-99.9,-100.00,West,272,4.0,10.0,-999,-99.99,,,-99.99,,2013-10-20 10:33:00,
2013-10-20 06:40:00,36.0,-99.9,-100.00,WSW,254,4.0,7.0,-999,-99.99,,,-99.99,,2013-10-20 10:40:00,
2013-10-20 07:12:00,36.0,-99.9,-100.00,WSW,254,4.0,7.0,-999,-99.99,,,-99.99,,2013-10-20 11:12:00,
2013-10-20 07:22:00,36.0,-99.9,-100.00,WSW,254,4.0,7.0,-999,-99.99,,,-99.99,,2013-10-20 11:22:00,
2013-10-20 07:33:00,36.0,-99.9,-100.00,WSW,254,4.0,7.0,-999,-99.99,,,-99.99,,2013-10-20 11:33:00,
2013-10-20 07:40:00,36.0,-99.9,-100.00,WSW,252,4.0,7.0,-999,-99.99,,,-99.99,,2013-10-20 11:40:00,
2013-10-20 08:22:00,36.0,-99.9,-100.00,WSW,252,4.0,7.0,-999,-99.99,,,-99.99,,2013-10-20 12:22:00,
2013-10-20 08:32:00,36.0,-99.9,-100.00,WSW,252,4.0,7.0,-999,-99.99,,,-99.99,,2013-10-20 12:32:00,
2013-10-20 08:40:00,37.0,-99.9,-100.00,West,259,4.0,8.0,-999,-99.99,,,-99.99,,2013-10-20 12:40:00,
2013-10-20 09:22:00,37.0,-99.9,-100.00,West,259,4.0,8.0,-999,-99.99,,,-99.99,,2013-10-20 13:22:00,
2013-10-20 09:32:00,37.0,-99.9,-100.00,West,259,4.0,8.0,-999,-99.99,,,-99.99,,2013-10-20 13:32:00,
2013-10-20 09:40:00,40.0,-99.9,-100.00,SW,236,4.0,10.0,-999,-99.99,,,-99.99,,2013-10-20 13:40:00,
2013-10-20 10:12:00,40.0,-99.9,-100.00,SW,236,4.0,10.0,-999,-99.99,,,-99.99,,2013-10-20 14:12:00,
2013-10-20 10:22:00,40.0,-99.9,-100.00,SW,236,4.0,10.0,-999,-99.99,,,-99.99,,2013-10-20 14:22:00,
2013-10-20 10:32:00,40.0,-99.9,-100.00,SW,236,4.0,10.0,-999,-99.99,,,-99.99,,2013-10-20 14:32:00,
2013-10-20 10:40:00,44.0,-99.9,-100.00,West,270,4.0,8.0,-999,-99.99,,,-99.99,,2013-10-20 14:40:00,
2013-10-20 11:11:00,44.0,-99.9,-100.00,West,270,4.0,8.0,-999,-99.99,,,-99.99,,2013-10-20 15:11:00,
2013-10-20 11:22:00,44.0,-99.9,-100.00,West,270,4.0,8.0,-999,-99.99,,,-99.99,,2013-10-20 15:22:00,
2013-10-20 11:34:00,44.0,-99.9,-100.00,West,270,4.0,8.0,-999,-99.99,,,-99.99,,2013-10-20 15:34:00,
2013-10-20 11:40:00,45.0,-99.9,-100.00,WSW,242,3.0,10.0,-999,-99.99,,,-99.99,,2013-10-20 15:40:00,
2013-10-20 12:24:00,45.0,-99.9,-100.00,WSW,242,3.0,10.0,-999,-99.99,,,-99.99,,2013-10-20 16:24:00,
2013-10-20 12:33:00,45.0,-99.9,-100.00,WSW,242,3.0,10.0,-999,-99.99,,,-99.99,,2013-10-20 16:33:00,
2013-10-20 12:40:00,46.0,-99.9,-100.00,WNW,287,2.0,7.0,-999,-99.99,,,-99.99,,2013-10-20 16:40:00,
2013-10-20 13:23:00,46.0,-99.9,-100.00,WNW,287,2.0,7.0,-999,-99.99,,,-99.99,,2013-10-20 17:23:00,
2013-10-20 13:34:00,46.0,-99.9,-100.00,WNW,287,2.0,7.0,-999,-99.99,,,-99.99,,2013-10-20 17:34:00,
2013-10-20 13:40:00,48.0,-99.9,-100.00,NE,51,2.0,3.0,-999,-99.99,,,-99.99,,2013-10-20 17:40:00,
2013-10-20 14:12:00,48.0,-99.9,-100.00,NE,51,2.0,3.0,-999,-99.99,,,-99.99,,2013-10-20 18:12:00,
2013-10-20 14:22:00,48.0,-99.9,-100.00,NE,51,2.0,3.0,-999,-99.99,,,-99.99,,2013-10-20 18:22:00,
2013-10-20 14:32:00,48.0,-99.9,-100.00,NE,51,2.0,3.0,-999,-99.99,,,-99.99,,2013-10-20 18:32:00,
2013-10-20 14:40:00,47.0,-99.9,-100.00,South,174,4.0,7.0,-999,-99.99,,,-99.99,,2013-10-20 18:40:00,
2013-10-20 15:22:00,47.0,-99.9,-100.00,South,174,4.0,7.0,-999,-99.99,,,-99.99,,2013-10-20 19:22:00,
2013-10-20 15:32:00,47.0,-99.9,-100.00,South,174,4.0,7.0,-999,-99.99,,,-99.99,,2013-10-20 19:32:00,
2013-10-20 15:40:00,48.0,-99.9,-100.00,South,178,4.0,7.0,-999,-99.99,,,-99.99,,2013-10-20 19:40:00,
2013-10-20 16:12:00,48.0,-99.9,-100.00,South,178,4.0,7.0,-999,-99.99,,,-99.99,,2013-10-20 20:12:00,
2013-10-20 16:22:00,48.0,-99.9,-100.00,South,178,4.0,7.0,-999,-99.99,,,-99.99,,2013-10-20 20:22:00,
2013-10-20 16:32:00,48.0,-99.9,-100.00,South,178,4.0,7.0,-999,-99.99,,,-99.99,,2013-10-20 20:32:00,
2013-10-20 16:40:00,47.0,-99.9,-100.00,SSE,168,5.0,8.0,-999,-99.99,,,-99.99,,2013-10-20 20:40:00,
2013-10-20 17:12:00,47.0,-99.9,-100.00,SSE,168,5.0,8.0,-999,-99.99,,,-99.99,,2013-10-20 21:12:00,
2013-10-20 17:22:00,47.0,-99.9,-100.00,SSE,168,5.0,8.0,-999,-99.99,,,-99.99,,2013-10-20 21:22:00,
2013-10-20 17:34:00,47.0,-99.9,-100.00,SSE,168,5.0,8.0,-999,-99.99,,,-99.99,,2013-10-20 21:34:00,
2013-10-20 17:40:00,46.0,-99.9,-100.00,South,170,5.0,8.0,-999,-99.99,,,-99.99,,2013-10-20 21:40:00,
2013-10-20 18:23:00,46.0,-99.9,-100.00,South,170,5.0,8.0,-999,-99.99,,,-99.99,,2013-10-20 22:23:00,
2013-10-20 18:33:00,46.0,-99.9,-100.00,South,170,5.0,8.0,-999,-99.99,,,-99.99,,2013-10-20 22:33:00,
2013-10-20 18:40:00,44.0,-99.9,-100.00,SW,219,1.0,3.0,-999,-99.99,,,-99.99,,2013-10-20 22:40:00,
2013-10-20 19:13:00,44.0,-99.9,-100.00,SW,219,1.0,3.0,-999,-99.99,,,-99.99,,2013-10-20 23:13:00,
2013-10-20 19:22:00,44.0,-99.9,-100.00,SW,219,1.0,3.0,-999,-99.99,,,-99.99,,2013-10-20 23:22:00,
2013-10-20 19:34:00,44.0,-99.9,-100.00,SW,219,1.0,3.0,-999,-99.99,,,-99.99,,2013-10-20 23:34:00,
2013-10-20 19:40:00,42.0,-99.9,-100.00,WSW,240,1.0,1.0,-999,-99.99,,,-99.99,,2013-10-20 23:40:00,
2013-10-20 20:12:00,42.0,-99.9,-100.00,WSW,240,1.0,1.0,-999,-99.99,,,-99.99,,2013-10-21 00:12:00,
2013-10-20 20:22:00,42.0,-99.9,-100.00,WSW,240,1.0,1.0,-999,-99.99,,,-99.99,,2013-10-21 00:22:00,
2013-10-20 20:32:00,42.0,-99.9,-100.00,WSW,240,1.0,1.0,-999,-99.99,,,-99.99,,2013-10-21 00:32:00,
2013-10-20 20:40:00,41.0,-99.9,-100.00,SSW,200,4.0,9.0,-999,-99.99,,,-99.99,,2013-10-21 00:40:00,
2013-10-20 21:12:00,41.0,-99.9,-100.00,SSW,200,4.0,9.0,-999,-99.99,,,-99.99,,2013-10-21 01:12:00,
2013-10-20 21:22:00,41.0,-99.9,-100.00,SSW,200,4.0,9.0,-999,-99.99,,,-99.99,,2013-10-21 01:22:00,
2013-10-20 21:32:00,41.0,-99.9,-100.00,SSW,200,4.0,9.0,-999,-99.99,,,-99.99,,2013-10-21 01:32:00,
2013-10-20 21:40:00,39.0,-99.9,-100.00,South,183,2.0,3.0,-999,-99.99,,,-99.99,,2013-10-21 01:40:00,
2013-10-20 22:22:00,39.0,-99.9,-100.00,South,183,2.0,3.0,-999,-99.99,,,-99.99,,2013-10-21 02:22:00,
2013-10-20 22:32:00,39.0,-99.9,-100.00,South,183,2.0,3.0,-999,-99.99,,,-99.99,,2013-10-21 02:32:00,
2013-10-20 22:40:00,39.0,-99.9,-100.00,South,180,2.0,4.0,-999,-99.99,,,-99.99,,2013-10-21 02:40:00,
2013-10-20 23:22:00,39.0,-99.9,-100.00,South,180,2.0,4.0,-999,-99.99,,,-99.99,,2013-10-21 03:22:00,
2013-10-20 23:34:00,39.0,-99.9,-100.00,South,180,2.0,4.0,-999,-99.99,,,-99.99,,2013-10-21 03:34:00,
2013-10-20 23:40:00,38.0,-99.9,-100.00,SW,234,2.0,3.0,-999,-99.99,,,-99.99,,2013-10-21 03:40:00,